Location: Huesca
(42.1318°N, 0.4078°W)
Time: 22:42:17
(UTC+02:00)

ACS3 Solar Sail - Pass Details

Date: 22 June 2024
Orbit: 992 x 1023 km, 97.4° (Epoch: 12 July)

Event Time Altitude Azimuth Distance (km) Brightness Sun altitude
Exits shadow 23:15:39 18° 154° (SSE) 2,236 6.1 -13.8°
Maximum altitude 23:20:24 70° 75° (ENE) 1,056 4.9 -14.4°
Drops below altitude 10° 23:26:36 10° 353° (N) 2,767 8.1 -15.1°
Sets 23:29:05 0° 351° (N) 3,718 9.0 -15.3°
